Starlink 4756

operational
NORAD ID: 53826 Int'l Des: 2022-114 Owner: SPXS Country: US Constellation: starlink
LEOCIRCULAR

Starlink 4756について

説明を読み込み中...

リアルタイム位置

3D地球を読み込み中...

次回通過

高度履歴

Altitude vs Time

uPlot chart will show altitude changes over time

軌道要素

1 53826U 22114J 25258.03083556 -.00000126 00000-0 10163-4 0 9991
2 53826 53.2201 12.6321 0001316 95.0364 265.0778 15.08836870166310
Epoch: Sep 15, 2025 • Age: 19 hours

現在のステータス

高度 545.7 km
速度 7.59 km/s
衛星直下点 -19.65°S, 63.05°E
打ち上げ日 Sep 19, 2022
運用期間 2.9 years
タイプ internet

技術仕様

分類 Payload
質量 305.00 kg
乾燥質量 290.00 kg
総質量 305.00 kg
長さ 0.20 m
直径 2.80 m
スパン 9.00 m
形状 Box + pan
製造者 SPXS
バスタイプ Starlink
フェーズステータス In Orbit
所有者/国 SPXS/US

大規模コンステレーション

Loading constellations...